THA1123 VTBS-VTSP

Flight info

Callsign THA1123
Flight time N/A
Altitude 34000
Route VANKO1G VANKO Y8 SAVSA SAVSA1C
Aircraft A359/H-SDE2E3GHIJ3J4J5LM1ORWXY/LB1D1

Departure

Time 2026-05-06 08:49
Airport Suvarnabhumi Airport (VTBS)

Arrival

Time N/A
Airport Phuket International Airport (VTSP)
Time Latitude Longitude Altitude Speed Heading
2026-05-06 08:33 13.68637 100.75384 19 ft 0 kts 284°
2026-05-06 08:37 13.68636 100.75386 19 ft 2 kts 284°
2026-05-06 08:38 13.68632 100.75402 22 ft 2 kts 284°
2026-05-06 08:38 13.68628 100.75419 22 ft 2 kts 284°
2026-05-06 08:38 13.68624 100.75435 19 ft 2 kts 282°
2026-05-06 08:38 13.68622 100.75452 19 ft 2 kts 268°
2026-05-06 08:39 13.68627 100.75468 21 ft 2 kts 212°
2026-05-06 08:39 13.68642 100.75473 23 ft 2 kts 195°
2026-05-06 08:39 13.68658 100.75478 21 ft 2 kts 194°
2026-05-06 08:39 13.68674 100.75482 21 ft 2 kts 194°
2026-05-06 08:40 13.68688 100.75486 23 ft 1 kts 193°
2026-05-06 08:40 13.68692 100.75486 23 ft 0 kts 194°
2026-05-06 08:41 13.68659 100.75478 21 ft 8 kts 194°
2026-05-06 08:41 13.68596 100.75462 21 ft 11 kts 194°
2026-05-06 08:41 13.68530 100.75423 23 ft 12 kts 238°
2026-05-06 08:41 13.68534 100.75339 21 ft 13 kts 284°
2026-05-06 08:42 13.68559 100.75242 19 ft 15 kts 284°
2026-05-06 08:42 13.68587 100.75128 21 ft 17 kts 284°
2026-05-06 08:42 13.68619 100.75003 21 ft 19 kts 284°
2026-05-06 08:42 13.68653 100.74865 19 ft 21 kts 284°
2026-05-06 08:43 13.68688 100.74729 21 ft 20 kts 284°
2026-05-06 08:43 13.68722 100.74593 21 ft 18 kts 284°
2026-05-06 08:43 13.68755 100.74461 19 ft 20 kts 284°
2026-05-06 08:43 13.68791 100.74318 23 ft 21 kts 284°
2026-05-06 08:44 13.68828 100.74172 23 ft 17 kts 285°
2026-05-06 08:44 13.68871 100.74125 20 ft 8 kts 341°
2026-05-06 08:44 13.68932 100.74132 22 ft 10 kts 14°
2026-05-06 08:44 13.69011 100.74153 22 ft 13 kts 14°
2026-05-06 08:45 13.69111 100.74179 23 ft 16 kts 14°
2026-05-06 08:45 13.69228 100.74210 21 ft 19 kts 14°
2026-05-06 08:45 13.69361 100.74245 22 ft 21 kts 14°
2026-05-06 08:45 13.69510 100.74284 24 ft 23 kts 14°
2026-05-06 08:46 13.69672 100.74326 22 ft 25 kts 15°
2026-05-06 08:46 13.69847 100.74373 21 ft 27 kts 14°
2026-05-06 08:46 13.70005 100.74414 22 ft 20 kts 14°
2026-05-06 08:46 13.70146 100.74451 23 ft 22 kts 14°
2026-05-06 08:47 13.70267 100.74483 22 ft 11 kts 14°
2026-05-06 08:47 13.70326 100.74459 23 ft 10 kts 297°
2026-05-06 08:47 13.70347 100.74383 22 ft 12 kts 273°
2026-05-06 08:47 13.70309 100.74311 23 ft 12 kts 220°
2026-05-06 08:48 13.70246 100.74287 23 ft 0 kts 195°
2026-05-06 08:48 13.70189 100.74272 24 ft 33 kts 194°
2026-05-06 08:48 13.69712 100.74147 20 ft 106 kts 194°
2026-05-06 08:48 13.68795 100.73906 34 ft 164 kts 195°
2026-05-06 08:49 13.67700 100.73621 829 ft 156 kts 195°
2026-05-06 08:49 13.66679 100.73354 1731 ft 152 kts 193°
2026-05-06 08:49 13.65583 100.73067 2132 ft 175 kts 193°
2026-05-06 08:49 13.64307 100.72733 2363 ft 204 kts 193°
2026-05-06 08:50 13.62844 100.72348 2671 ft 230 kts 193°
2026-05-06 08:50 13.61215 100.71919 3037 ft 253 kts 193°
2026-05-06 08:50 13.59466 100.71457 3642 ft 264 kts 193°
2026-05-06 08:50 13.57668 100.70980 4430 ft 269 kts 192°
2026-05-06 08:51 13.55840 100.70497 5250 ft 273 kts 193°
2026-05-06 08:51 13.54012 100.70005 6020 ft 278 kts 193°
2026-05-06 08:51 13.52221 100.69160 6789 ft 283 kts 214°
2026-05-06 08:51 13.50792 100.67759 7604 ft 287 kts 227°
2026-05-06 08:52 13.49473 100.66197 8377 ft 291 kts 228°
2026-05-06 08:52 13.48172 100.64630 9232 ft 293 kts 229°
2026-05-06 08:52 13.46842 100.63037 10036 ft 297 kts 229°
2026-05-06 08:52 13.45433 100.61361 10450 ft 316 kts 229°
2026-05-06 08:53 13.43971 100.59630 10766 ft 335 kts 229°
2026-05-06 08:53 13.42403 100.57777 11125 ft 350 kts 229°
2026-05-06 08:53 13.40784 100.55867 11691 ft 358 kts 229°
2026-05-06 08:53 13.39047 100.54009 12328 ft 363 kts 222°
2026-05-06 08:54 13.37155 100.52277 13009 ft 367 kts 221°
2026-05-06 08:54 13.35220 100.50552 13676 ft 370 kts 221°
2026-05-06 08:54 13.33264 100.48809 14228 ft 374 kts 221°
2026-05-06 08:54 13.31286 100.47042 14768 ft 379 kts 221°
2026-05-06 08:55 13.29289 100.45255 15344 ft 383 kts 221°
2026-05-06 08:55 13.27276 100.43454 15910 ft 386 kts 221°
2026-05-06 08:55 13.25239 100.41630 16414 ft 391 kts 221°
2026-05-06 08:55 13.23177 100.39784 16965 ft 395 kts 221°
2026-05-06 08:56 13.21094 100.37920 17485 ft 399 kts 221°
2026-05-06 08:56 13.18991 100.36043 18045 ft 402 kts 221°
2026-05-06 08:56 13.16878 100.34152 18541 ft 405 kts 221°
2026-05-06 08:56 13.14748 100.32243 18982 ft 409 kts 221°
2026-05-06 08:57 13.12594 100.30316 19410 ft 412 kts 221°
2026-05-06 08:57 13.10429 100.28379 19934 ft 414 kts 221°
2026-05-06 08:57 13.08248 100.26429 20466 ft 416 kts 221°
2026-05-06 08:57 13.06056 100.24470 20933 ft 420 kts 221°
2026-05-06 08:58 13.03839 100.22496 21357 ft 424 kts 221°
2026-05-06 08:58 13.01607 100.20502 21879 ft 426 kts 221°
2026-05-06 08:58 12.99368 100.18497 22362 ft 429 kts 221°
2026-05-06 08:58 12.97213 100.16352 22780 ft 433 kts 226°
2026-05-06 08:59 12.95117 100.14106 23199 ft 438 kts 226°
2026-05-06 08:59 12.93005 100.11851 23659 ft 440 kts 226°
2026-05-06 08:59 12.90879 100.09603 24118 ft 440 kts 226°
2026-05-06 08:59 12.88734 100.07351 24496 ft 443 kts 226°
2026-05-06 09:00 12.86569 100.05086 24889 ft 446 kts 226°
2026-05-06 09:00 12.84387 100.02810 25313 ft 449 kts 225°
2026-05-06 09:00 12.82194 100.00525 25774 ft 451 kts 225°
2026-05-06 09:00 12.79983 99.98223 26194 ft 456 kts 225°
2026-05-06 09:01 12.77750 99.95901 26666 ft 458 kts 225°
2026-05-06 09:01 12.75513 99.93575 27169 ft 460 kts 225°
2026-05-06 09:01 12.73258 99.91230 27612 ft 463 kts 225°
2026-05-06 09:01 12.70985 99.88868 28030 ft 467 kts 225°
2026-05-06 09:02 12.68696 99.86491 28517 ft 470 kts 225°
2026-05-06 09:02 12.66399 99.84105 28967 ft 472 kts 225°
2026-05-06 09:02 12.64069 99.81709 29341 ft 477 kts 224°
2026-05-06 09:02 12.61505 99.79524 29697 ft 482 kts 215°
2026-05-06 09:03 12.58646 99.77828 30116 ft 483 kts 205°
2026-05-06 09:03 12.55490 99.76661 30514 ft 484 kts 194°
2026-05-06 09:03 12.52166 99.76091 30863 ft 486 kts 184°
2026-05-06 09:03 12.48778 99.75949 31240 ft 488 kts 181°
2026-05-06 09:04 12.45381 99.75924 31601 ft 490 kts 179°
2026-05-06 09:04 12.41964 99.75952 31949 ft 492 kts 179°
2026-05-06 09:04 12.38534 99.75993 32269 ft 494 kts 179°
2026-05-06 09:04 12.35087 99.76029 32576 ft 496 kts 179°
2026-05-06 09:05 12.31628 99.76055 32897 ft 498 kts 179°
2026-05-06 09:05 12.28151 99.76070 33187 ft 500 kts 179°
2026-05-06 09:05 12.24665 99.76078 33494 ft 502 kts 180°
2026-05-06 09:05 12.21161 99.76082 33757 ft 504 kts 179°
2026-05-06 09:06 12.17695 99.76084 33819 ft 492 kts 180°
2026-05-06 09:06 12.10956 99.76086 33821 ft 480 kts 179°
2026-05-06 09:07 12.04289 99.76092 33821 ft 478 kts 179°
2026-05-06 09:07 11.97637 99.76098 33821 ft 478 kts 179°
2026-05-06 09:08 11.90981 99.76104 33820 ft 478 kts 179°
2026-05-06 09:08 11.84318 99.76110 33820 ft 479 kts 180°
2026-05-06 09:09 11.77649 99.76117 33821 ft 479 kts 180°
2026-05-06 09:09 11.70987 99.76125 33818 ft 479 kts 180°
2026-05-06 09:10 11.64360 99.76134 33821 ft 479 kts 180°
2026-05-06 09:10 11.57690 99.76139 33821 ft 479 kts 180°
2026-05-06 09:11 11.51026 99.76144 33818 ft 479 kts 180°
2026-05-06 09:11 11.44362 99.76151 33818 ft 479 kts 180°
2026-05-06 09:12 11.37695 99.76159 33818 ft 479 kts 180°
2026-05-06 09:12 11.31029 99.76166 33818 ft 479 kts 180°
2026-05-06 09:13 11.24368 99.76173 33818 ft 479 kts 180°
2026-05-06 09:13 11.17713 99.76177 33817 ft 479 kts 180°